Regional Weather Roundup
Issued by NWS Jackson, KY

Home | Current Version | Previous Version | Text Only | Print | Product List | Glossary On
Versions: 1 2 3 4 5 6 7 8 9 10 11 12 13 14 15 16 17 18 19 20 21 22 23 24 25 26 27
000
ASUS43 KJKL 241010
RWRJKL

EAST KENTUCKY HOURLY WEATHER ROUNDUP
NATIONAL WEATHER SERVICE JACKSON KY
600 AM EDT SUN JUL 24 2016

NOTE: "FAIR" INDICATES FEW OR NO CLOUDS BELOW 12,000 FEET WITH
NO SIGNIFICANT WEATHER AND/OR OBSTRUCTIONS TO VISIBILITY.

* THESE REPORTS ARE NOT UNDER NWS QUALITY CONTROL AND MAY NOT
  REPORT WEATHER SUCH AS PRECIPITATION AND FOG.

KYZ079-080-083-085-087-088-110-112-115-119-120-241100
...EASTERN KENTUCKY...

CITY           SKY/WX    TMP DP  RH WIND       PRES   REMARKS
JACKSON        CLEAR     73  71  93 CALM      30.05S
LONDON         CLEAR     72  69  90 S3        30.05R
SOMERSET*      CLOUDY    70  70 100 CALM      30.05R FOG
MONTICELLO*    CLEAR    N/A N/A N/A W3        30.05R
WILLIAMSBURG*  CLOUDY    70  70 100 CALM      30.05R
MIDDLESBORO*   CLOUDY    71  71 100 CALM      30.07R FOG
HARLAN APT*    CLOUDY    70  68  94 CALM      30.08R
PIKE CO APT*     N/A     71  71 100 S5        30.06S
MOREHEAD APT*  MOSUNNY   75  72  88 S3        30.04R
ASHLAND*       PTCLDY    73  72  94 CALM      29.99R
$$

KYZ035-036-041-042-044-050-067-078-099-241100
...CENTRAL KENTUCKY...

CITY           SKY/WX    TMP DP  RH WIND       PRES   REMARKS
MT STERLING*   CLOUDY    73  73 100 SW3       30.03S
FLEMING/MASON* CLOUDY    75  73  93 S3        30.02S
DANVILLE*      CLEAR     72  72 100 CALM      30.04R
RICHMOND*      CLEAR     75  72  88 S3        30.02S
LEXINGTON      CLOUDY    75  72  90 S5        30.01F
FRANKFORT      CLEAR     75  71  87 CALM      29.98F
LOUISVILLE     CLOUDY    80  75  84 CALM      29.97R
LEBANON*         N/A     75  73  94 SE3       30.01S
GLASGOW*       CLEAR     74  74  98 CALM      30.01R
BOWLING GREEN  PTCLDY    75  73  93 SE6       29.99S
$$

KYZ091>093-OHZ055-061-077-WVZ005-015-034-035-042-241100
...SOUTHERN OHIO/WEST VIRGINIA...

CITY           SKY/WX    TMP DP  RH WIND       PRES   REMARKS
COVINGTON      CLOUDY    75  72  90 NW5       30.01R
COLUMBUS       MOCLDY    74  72  93 CALM      29.99S
DAYTON         CLOUDY    73  71  93 CALM      30.02S
WILMINGTON     PTCLDY    74  72  93 CALM      30.01R FOG
HUNTINGTON       N/A     73  71  93 SE3       30.01S FOG
CHARLESTON     FOG       71  70  96 CALM      30.03S VSB 1
PINEVILLE*     CLOUDY    71  68  90 MISG      30.14R FOG
BECKLEY          N/A     68  66  93 CALM      30.13R
BLUEFIELD        N/A     70  66  87 CALM      30.16R
LOGAN CO APT*    N/A     72  72 100 CALM      30.07R
$$

VAZ002-007-008-TNZ017-027-036-066-071-241100
...SOUTHWEST VIRGINIA/EAST TENNESSEE...

CITY           SKY/WX    TMP DP  RH WIND       PRES   REMARKS
WISE*            N/A     68  66  94 CALM      30.15R FOG
JONESVILLE*      N/A     68  68 100 CALM      30.10R
ABINGDON*        N/A     70  69  99 CALM      30.11R
BRISTOL        MOCLDY    68  66  93 CALM      30.08R
MORRISTOWN*    PTSUNNY   72  70  94 CALM      30.06R
SEVIERVILLE*   SUNNY     66  66 100 CALM      30.05R
OAK RIDGE      CLOUDY    74  71  91 CALM      30.06R
CROSSVILLE     CLEAR     68  67  96 CALM      30.09R
NASHVILLE      MOCLDY    73  69  87 SE3       30.00R
$$

...KEY TO REMARKS...
VSB - VISIBILITY IN MILES
WCI - WIND CHILL INDEX
HX  - HEAT INDEX

$$




USA.gov is the U.S. government's official web portal to all federal, state and local government web resources and services.